Charter Quote
Worldwide +44-20-3874-8091 Call
Select Language Lang
SAFETY RELIABILITY EXPERIENCE

Kisarazu Airport (RJTK) - Jet Charter Services

AIRPORT INFORMATION
ICAORJTK
LOCATIONHonshu Island, Japan
FACILITY TYPEAIRPORT
Runway Length (ft) Width (ft) Surface Type Elevation (ft)
20/02 6004 150 ASP 10.00000

At Paramount Business Jets you can hire chartered private jets to and from Kisarazu Airport with as little as 4 hours of notice. All flights booked via Paramount Business Jets are operated by certified direct air carriers that meet and exceed the FAA part 135 and 121 protocol or a foreign equivalent safety authority. Furthermore, Paramount Business Jets subscribes to ARGUS for their third party safety checks of operators, aircraft, and crews prior each and every flight to and from Kisarazu Airport and worldwide.

  • Quote a trip using Kisarazu Airport or call us 24/7 - 365 days a year at +44-20-3874-8091.
Questions? Call +44-20-3874-8091

METAR Weather Data at Kisarazu Airport, RJTK

STATIONRJTK
OBSERVEDFri Mar 22, 05:38 UTC
NOWSun Mar 24, 10:45 UTC
AGE53:07 hr ago
WINDN at 12 mph
VISIBILITY16 miles
CLOUDSmostly cloudy
TEMP72°F (22°C)
DEWPT45°F (7°C)
HUMIDITY38%
BAROMETER1000 hPa (29.53 in Hg)
METARRJTK 220538Z 36010KT 9999 FEW030 BKN070 BKN220 22/07 Q1000 RMK 2CU030 5AC070 7CI220 A2955

Call us on +44-20-3874-8091 (24 Hours) to Hire a Private Jet or Get a Quick Quote.

Find Airports Near any Location

Processing
...